QPF
0.00 0.00 0.00 0.00 0.00 0.00 0.00 0.01 0.03 0.03 0.01 0.00 0.00 0.00 0.00 0.00 0.00 0.00 0.00 0.00 0.00 0.00 0.01 0.01 0.01 0.01 0.00 0.00 0.00 0.00 0.00 0.00 0.00 0.00 0.00 0.00 0.01 0.01 0.01 0.01 0.01 0.01 0.01 0.01
0.00 0.00 0.00 0.00 0.00 0.00 0.00 0.00 0.01 0.00 0.00 0.00 0.00 0.00 0.01 0.01 0.01 0.01 0.01 0.01 0.01 0.01 0.01 0.01 0.01 0.01 0.01 0.01 0.01 0.01 0.01 0.00 0.00 0.00 0.00 0.00 0.00 0.01 0.01 0.01 0.02 0.02 0.02 0.02
0.00 0.00 0.00 0.00 0.00 0.00 0.00 0.00 0.00 0.01 0.01 0.01 0.01 0.01 0.02 0.03 0.02 0.02 0.01 0.01 0.01 0.01 0.01 0.01 0.01 0.01 0.01 0.00 0.00 0.00 0.00 0.00 0.00 0.00 0.00 0.00 0.00 0.01 0.01 0.02 0.03 0.03 0.03 0.03
0.00 0.00 0.01 0.01 0.00 0.00 0.00 0.00 0.00 0.01 0.01 0.01 0.02 0.02 0.03 0.03 0.02 0.01 0.01 0.00 0.00 0.00 0.00 0.00 0.00 0.00 0.00 0.00 0.00 0.00 0.00 0.00 0.00 0.00 0.00 0.00 0.00 0.01 0.02 0.04 0.04 0.04 0.04 0.04
0.00 0.00 0.01 0.00 0.00 0.00 0.00 0.01 0.01 0.01 0.01 0.01 0.01 0.01 0.01 0.01 0.00 0.00 0.00 0.00 0.00 0.00 0.00 0.00 0.00 0.00 0.00 0.00 0.00 0.00 0.00 0.00 0.00 0.00 0.00 0.00 0.00 0.01 0.03 0.05 0.06 0.07 0.08 0.07
0.00 0.00 0.01 0.00 0.00 0.00 0.00 0.03 0.02 0.01 0.00 0.00 0.00 0.00 0.00 0.00 0.00 0.00 0.00 0.00 0.00 0.00 0.00 0.00 0.00 0.00 0.00 0.00 0.00 0.00 0.00 0.00 0.00 0.00 0.00 0.00 0.01 0.01 0.04 0.06 0.08 0.10 0.10 0.10
0.00 0.00 0.00 0.00 0.00 0.00 0.00 0.01 0.00 0.00 0.00 0.00 0.00 0.00 0.00 0.00 0.00 0.00 0.00 0.00 0.00 0.00 0.00 0.00 0.00 0.00 0.00 0.00 0.00 0.00 0.00 0.00 0.00 0.00 0.01 0.01 0.01 0.02 0.04 0.09 0.13 0.15 0.14 0.14
0.00 0.01 0.01 0.00 0.00 0.00 0.00 0.00 0.00 0.00 0.00 0.00 0.00 0.00 0.00 0.00 0.00 0.00 0.00 0.00 0.00 0.00 0.00 0.00 0.00 0.00 0.00 0.00 0.00 0.00 0.00 0.00 0.00 0.01 0.00 0.00 0.01 0.02 0.05 0.11 0.17 0.22 0.23 0.21
0.01 0.01 0.00 0.00 0.00 0.00 0.00 0.00 0.00 0.00 0.00 0.00 0.00 0.00 0.00 0.00 0.00 0.00 0.00 0.00 0.00 0.00 0.00 0.00 0.00 0.00 0.00 0.00 0.00 0.00 0.01 0.01 0.01 0.01 0.00 0.01 0.01 0.02 0.05 0.12 0.22 0.29 0.32 0.31
0.00 0.00 0.00 0.00 0.00 0.00 0.00 0.00 0.00 0.00 0.00 0.00 0.00 0.00 0.00 0.00 0.00 0.00 0.00 0.00 0.00 0.00 0.00 0.00 0.00 0.00 0.00 0.00 0.00 0.01 0.01 0.01 0.01 0.01 0.01 0.01 0.02 0.02 0.04 0.12 0.26 0.36 0.39 0.38
0.00 0.00 0.00 0.00 0.00 0.00 0.00 0.00 0.00 0.00 0.00 0.00 0.00 0.00 0.00 0.00 0.00 0.00 0.00 0.00 0.00 0.00 0.00 0.00 0.00 0.00 0.00 0.00 0.01 0.01 0.01 0.01 0.01 0.01 0.01 0.01 0.02 0.03 0.04 0.09 0.23 0.37 0.43 0.43
0.00 0.00 0.00 0.00 0.00 0.00 0.00 0.00 0.00 0.00 0.00 0.00 0.00 0.00 0.00 0.00 0.00 0.00 0.00 0.00 0.00 0.00 0.00 0.00 0.00 0.00 0.00 0.00 0.01 0.02 0.02 0.01 0.01 0.01 0.01 0.01 0.02 0.03 0.03 0.05 0.14 0.27 0.36 0.41
0.00 0.00 0.00 0.00 0.00 0.00 0.00 0.00 0.00 0.00 0.00 0.00 0.00 0.00 0.00 0.00 0.00 0.00 0.00 0.00 0.00 0.00 0.00 0.00 0.00 0.00 0.00 0.01 0.02 0.02 0.02 0.02 0.02 0.02 0.02 0.02 0.03 0.04 0.06 0.08 0.14 0.24 0.30 0.34
0.00 0.00 0.00 0.00 0.00 0.00 0.00 0.00 0.00 0.00 0.00 0.00 0.00 0.00 0.00 0.00 0.00 0.00 0.00 0.00 0.00 0.00 0.01 0.01 0.01 0.01 0.01 0.02 0.03 0.03 0.03 0.03 0.03 0.02 0.02 0.02 0.03 0.04 0.06 0.11 0.20 0.27 0.30 0.32
0.00 0.00 0.00 0.00 0.00 0.00 0.00 0.00 0.00 0.00 0.00 0.00 0.00 0.00 0.00 0.00 0.00 0.00 0.00 0.01 0.01 0.01 0.01 0.02 0.02 0.02 0.02 0.03 0.03 0.04 0.03 0.03 0.03 0.03 0.03 0.03 0.04 0.05 0.07 0.12 0.21 0.27 0.30 0.34
0.00 0.00 0.00 0.00 0.00 0.00 0.00 0.00 0.00 0.00 0.00 0.00 0.00 0.00 0.00 0.00 0.00 0.01 0.01 0.02 0.03 0.03 0.03 0.03 0.03 0.03 0.04 0.04 0.04 0.05 0.04 0.03 0.04 0.04 0.04 0.03 0.04 0.05 0.08 0.15 0.22 0.25 0.27 0.30
0.00 0.00 0.00 0.00 0.00 0.00 0.00 0.00 0.00 0.00 0.00 0.00 0.00 0.00 0.00 0.01 0.01 0.02 0.02 0.03 0.03 0.04 0.05 0.06 0.06 0.05 0.05 0.05 0.06 0.06 0.05 0.04 0.04 0.04 0.04 0.04 0.04 0.06 0.10 0.17 0.22 0.23 0.22 0.23
0.00 0.00 0.00 0.00 0.00 0.00 0.00 0.00 0.00 0.00 0.00 0.00 0.00 0.00 0.01 0.02 0.04 0.05 0.06 0.06 0.06 0.06 0.06 0.07 0.07 0.06 0.06 0.06 0.07 0.06 0.06 0.06 0.05 0.04 0.03 0.04 0.05 0.07 0.12 0.18 0.21 0.20 0.19 0.19
0.00 0.00 0.00 0.00 0.00 0.00 0.00 0.00 0.00 0.00 0.00 0.00 0.00 0.01 0.02 0.04 0.07 0.09 0.10 0.10 0.10 0.11 0.10 0.09 0.09 0.08 0.07 0.07 0.08 0.08 0.07 0.05 0.04 0.03 0.03 0.03 0.04 0.08 0.14 0.18 0.19 0.17 0.16 0.17
0.00 0.00 0.00 0.00 0.00 0.00 0.00 0.00 0.00 0.00 0.00 0.00 0.00 0.01 0.03 0.05 0.09 0.12 0.13 0.11 0.12 0.14 0.15 0.13 0.12 0.09 0.08 0.08 0.10 0.08 0.06 0.05 0.04 0.04 0.04 0.04 0.06 0.10 0.14 0.16 0.15 0.14 0.12 0.12
0.00 0.00 0.00 0.00 0.00 0.00 0.00 0.00 0.00 0.00 0.00 0.00 0.01 0.02 0.05 0.08 0.10 0.14 0.17 0.15 0.11 0.12 0.15 0.16 0.13 0.10 0.08 0.08 0.09 0.07 0.05 0.04 0.03 0.03 0.04 0.05 0.08 0.11 0.13 0.14 0.13 0.10 0.09 0.08
0.00 0.00 0.00 0.00 0.00 0.00 0.00 0.00 0.00 0.00 0.00 0.00 0.01 0.03 0.07 0.12 0.14 0.16 0.16 0.14 0.12 0.12 0.16 0.15 0.11 0.08 0.05 0.05 0.05 0.05 0.03 0.03 0.03 0.03 0.04 0.06 0.09 0.11 0.11 0.11 0.10 0.08 0.07 0.05
0.00 0.00 0.00 0.00 0.00 0.00 0.00 0.00 0.00 0.00 0.00 0.00 0.01 0.04 0.10 0.15 0.18 0.23 0.20 0.14 0.12 0.13 0.15 0.14 0.09 0.04 0.03 0.03 0.03 0.03 0.02 0.02 0.03 0.03 0.04 0.05 0.08 0.09 0.08 0.08 0.07 0.05 0.04 0.03
0.00 0.00 0.00 0.00 0.00 0.00 0.00 0.00 0.00 0.00 0.00 0.00 0.01 0.03 0.11 0.18 0.19 0.17 0.17 0.16 0.13 0.12 0.13 0.15 0.12 0.07 0.04 0.03 0.02 0.02 0.02 0.02 0.02 0.02 0.03 0.05 0.06 0.06 0.07 0.07 0.05 0.03 0.02 0.02
0.00 0.00 0.00 0.00 0.00 0.00 0.00 0.00 0.00 0.00 0.00 0.01 0.01 0.02 0.07 0.15 0.19 0.15 0.13 0.14 0.13 0.11 0.11 0.13 0.16 0.13 0.07 0.04 0.03 0.02 0.02 0.02 0.02 0.02 0.03 0.05 0.06 0.06 0.07 0.05 0.03 0.02 0.01 0.01
0.00 0.00 0.00 0.00 0.00 0.00 0.00 0.00 0.00 0.01 0.01 0.01 0.01 0.02 0.06 0.09 0.10 0.09 0.09 0.11 0.11 0.11 0.10 0.11 0.13 0.15 0.11 0.07 0.04 0.03 0.03 0.02 0.02 0.03 0.04 0.06 0.06 0.05 0.05 0.03 0.02 0.02 0.01 0.00
0.00 0.00 0.00 0.00 0.00 0.00 0.00 0.00 0.00 0.01 0.01 0.01 0.01 0.02 0.05 0.07 0.07 0.07 0.07 0.08 0.10 0.10 0.11 0.10 0.11 0.12 0.11 0.08 0.05 0.04 0.05 0.05 0.04 0.05 0.06 0.06 0.04 0.03 0.03 0.02 0.02 0.01 0.00 0.00
MSLP
1012.56 1012.62 1012.74 1012.95 1013.24 1013.60 1014.02 1014.47 1014.93 1015.37 1015.77 1016.13 1016.42 1016.64 1016.78 1016.83 1016.80 1016.68 1016.48 1016.21 1015.88 1015.52 1015.14 1014.76 1014.40 1014.06 1013.75 1013.46 1013.17 1012.86 1012.52 1012.14 1011.71 1011.24 1010.74 1010.23 1009.74 1009.28 1008.87 1008.51 1008.20 1007.93 1007.69 1007.45
1012.96 1013.10 1013.32 1013.60 1013.94 1014.33 1014.75 1015.18 1015.60 1015.98 1016.30 1016.56 1016.74 1016.85 1016.86 1016.80 1016.65 1016.43 1016.15 1015.81 1015.43 1015.03 1014.63 1014.24 1013.86 1013.52 1013.20 1012.89 1012.58 1012.26 1011.92 1011.54 1011.13 1010.69 1010.24 1009.79 1009.36 1008.97 1008.62 1008.31 1008.05 1007.81 1007.59 1007.37
1013.47 1013.73 1014.03 1014.39 1014.78 1015.19 1015.60 1015.98 1016.32 1016.60 1016.79 1016.91 1016.93 1016.87 1016.74 1016.52 1016.24 1015.91 1015.54 1015.13 1014.71 1014.28 1013.86 1013.45 1013.06 1012.70 1012.36 1012.03 1011.70 1011.37 1011.01 1010.64 1010.26 1009.87 1009.48 1009.11 1008.77 1008.47 1008.20 1007.97 1007.77 1007.58 1007.40 1007.21
1014.09 1014.44 1014.83 1015.25 1015.67 1016.08 1016.44 1016.75 1016.98 1017.11 1017.15 1017.08 1016.93 1016.69 1016.38 1016.02 1015.61 1015.17 1014.72 1014.25 1013.79 1013.34 1012.90 1012.48 1012.08 1011.70 1011.33 1010.98 1010.62 1010.27 1009.91 1009.55 1009.20 1008.85 1008.53 1008.24 1007.99 1007.78 1007.60 1007.45 1007.31 1007.18 1007.04 1006.89
1014.75 1015.17 1015.62 1016.06 1016.48 1016.85 1017.15 1017.35 1017.43 1017.41 1017.27 1017.02 1016.68 1016.27 1015.81 1015.31 1014.79 1014.27 1013.76 1013.26 1012.77 1012.31 1011.86 1011.43 1011.02 1010.62 1010.23 1009.85 1009.47 1009.10 1008.73 1008.38 1008.05 1007.75 1007.49 1007.27 1007.09 1006.95 1006.85 1006.76 1006.69 1006.61 1006.52 1006.41
1015.41 1015.86 1016.31 1016.74 1017.12 1017.42 1017.61 1017.68 1017.62 1017.43 1017.11 1016.70 1016.20 1015.65 1015.06 1014.46 1013.87 1013.29 1012.74 1012.22 1011.73 1011.27 1010.82 1010.39 1009.97 1009.56 1009.16 1008.76 1008.36 1007.98 1007.61 1007.26 1006.95 1006.68 1006.45 1006.28 1006.15 1006.07 1006.01 1005.98 1005.95 1005.91 1005.86 1005.79
1016.00 1016.43 1016.85 1017.22 1017.52 1017.71 1017.77 1017.70 1017.49 1017.15 1016.69 1016.13 1015.51 1014.86 1014.19 1013.53 1012.90 1012.30 1011.74 1011.22 1010.74 1010.28 1009.84 1009.42 1009.00 1008.58 1008.17 1007.76 1007.36 1006.98 1006.61 1006.27 1005.98 1005.72 1005.52 1005.37 1005.26 1005.20 1005.17 1005.16 1005.16 1005.16 1005.15 1005.12
1016.48 1016.85 1017.19 1017.46 1017.65 1017.71 1017.63 1017.42 1017.07 1016.60 1016.03 1015.38 1014.68 1013.97 1013.27 1012.59 1011.95 1011.36 1010.81 1010.30 1009.83 1009.38 1008.95 1008.52 1008.11 1007.70 1007.29 1006.88 1006.49 1006.12 1005.76 1005.44 1005.15 1004.91 1004.71 1004.56 1004.46 1004.40 1004.38 1004.38 1004.39 1004.42 1004.45 1004.48
1016.82 1017.10 1017.34 1017.49 1017.54 1017.46 1017.25 1016.91 1016.44 1015.87 1015.22 1014.52 1013.79 1013.07 1012.36 1011.70 1011.08 1010.51 1009.97 1009.48 1009.01 1008.56 1008.13 1007.70 1007.28 1006.87 1006.47 1006.09 1005.71 1005.36 1005.03 1004.72 1004.45 1004.21 1004.01 1003.85 1003.74 1003.66 1003.63 1003.63 1003.66 1003.72 1003.79 1003.89
1017.02 1017.21 1017.32 1017.34 1017.24 1017.03 1016.69 1016.24 1015.68 1015.05 1014.36 1013.64 1012.92 1012.21 1011.54 1010.91 1010.31 1009.76 1009.24 1008.74 1008.26 1007.80 1007.34 1006.90 1006.47 1006.06 1005.67 1005.30 1004.95 1004.63 1004.32 1004.04 1003.78 1003.54 1003.34 1003.17 1003.03 1002.94 1002.90 1002.90 1002.95 1003.05 1003.19 1003.36
1017.12 1017.19 1017.18 1017.07 1016.84 1016.51 1016.06 1015.52 1014.90 1014.23 1013.53 1012.82 1012.13 1011.46 1010.83 1010.23 1009.66 1009.12 1008.59 1008.07 1007.55 1007.05 1006.56 1006.08 1005.63 1005.21 1004.81 1004.46 1004.13 1003.83 1003.56 1003.30 1003.06 1002.83 1002.62 1002.43 1002.28 1002.18 1002.13 1002.14 1002.22 1002.37 1002.57 1002.83
1017.13 1017.10 1016.98 1016.74 1016.41 1015.96 1015.43 1014.82 1014.16 1013.48 1012.79 1012.11 1011.46 1010.84 1010.24 1009.67 1009.11 1008.55 1007.99 1007.42 1006.85 1006.28 1005.73 1005.20 1004.70 1004.26 1003.86 1003.51 1003.20 1002.93 1002.68 1002.44 1002.21 1001.99 1001.77 1001.58 1001.42 1001.31 1001.27 1001.30 1001.41 1001.61 1001.89 1002.23
1017.08 1016.96 1016.74 1016.41 1015.97 1015.44 1014.84 1014.19 1013.52 1012.83 1012.17 1011.52 1010.91 1010.32 1009.75 1009.19 1008.61 1008.02 1007.41 1006.78 1006.13 1005.48 1004.85 1004.25 1003.70 1003.22 1002.80 1002.45 1002.15 1001.89 1001.66 1001.44 1001.22 1001.01 1000.79 1000.60 1000.43 1000.32 1000.29 1000.34 1000.50 1000.75 1001.10 1001.52
1016.99 1016.79 1016.49 1016.07 1015.56 1014.97 1014.33 1013.65 1012.96 1012.29 1011.64 1011.03 1010.44 1009.88 1009.31 1008.74 1008.14 1007.50 1006.82 1006.10 1005.36 1004.63 1003.91 1003.24 1002.64 1002.12 1001.68 1001.32 1001.02 1000.77 1000.55 1000.34 1000.14 999.92 999.71 999.51 999.35 999.25 999.23 999.31 999.50 999.80 1000.21 1000.69
1016.85 1016.59 1016.22 1015.75 1015.18 1014.55 1013.87 1013.18 1012.49 1011.83 1011.20 1010.60 1010.02 1009.46 1008.89 1008.28 1007.63 1006.93 1006.18 1005.38 1004.56 1003.74 1002.95 1002.22 1001.57 1001.01 1000.55 1000.18 999.89 999.64 999.43 999.23 999.03 998.82 998.61 998.42 998.26 998.17 998.16 998.27 998.49 998.83 999.27 999.80
1016.68 1016.37 1015.95 1015.42 1014.82 1014.16 1013.46 1012.76 1012.07 1011.41 1010.79 1010.19 1009.61 1009.03 1008.43 1007.78 1007.08 1006.31 1005.49 1004.62 1003.72 1002.84 1001.99 1001.22 1000.54 999.96 999.49 999.12 998.83 998.60 998.39 998.20 998.00 997.80 997.60 997.41 997.26 997.18 997.19 997.32 997.56 997.92 998.39 998.94
1016.46 1016.11 1015.65 1015.10 1014.47 1013.79 1013.08 1012.38 1011.69 1011.02 1010.39 1009.79 1009.19 1008.57 1007.92 1007.22 1006.46 1005.63 1004.74 1003.81 1002.87 1001.94 1001.07 1000.28 999.59 999.01 998.55 998.20 997.92 997.70 997.51 997.33 997.15 996.95 996.76 996.58 996.45 996.39 996.41 996.55 996.81 997.19 997.67 998.22
1016.21 1015.84 1015.36 1014.79 1014.15 1013.46 1012.75 1012.03 1011.34 1010.67 1010.02 1009.38 1008.74 1008.08 1007.38 1006.62 1005.79 1004.91 1003.96 1002.99 1002.02 1001.08 1000.20 999.42 998.75 998.20 997.77 997.44 997.20 997.00 996.84 996.67 996.51 996.33 996.15 995.99 995.88 995.84 995.88 996.04 996.31 996.69 997.17 997.71
1015.95 1015.56 1015.07 1014.50 1013.85 1013.17 1012.46 1011.74 1011.04 1010.35 1009.68 1009.00 1008.31 1007.60 1006.83 1006.00 1005.12 1004.17 1003.19 1002.19 1001.20 1000.27 999.42 998.67 998.04 997.54 997.15 996.87 996.66 996.50 996.36 996.23 996.08 995.93 995.78 995.64 995.56 995.53 995.60 995.78 996.06 996.44 996.91 997.45
1015.69 1015.30 1014.82 1014.25 1013.61 1012.94 1012.23 1011.52 1010.81 1010.11 1009.40 1008.68 1007.94 1007.15 1006.32 1005.42 1004.48 1003.48 1002.46 1001.45 1000.47 999.55 998.73 998.03 997.45 997.00 996.67 996.44 996.27 996.15 996.05 995.94 995.83 995.70 995.58 995.48 995.42 995.42 995.52 995.71 996.00 996.39 996.86 997.38
1015.47 1015.08 1014.61 1014.05 1013.44 1012.77 1012.09 1011.38 1010.67 1009.95 1009.21 1008.45 1007.65 1006.80 1005.90 1004.94 1003.93 1002.90 1001.85 1000.82 999.84 998.95 998.17 997.51 996.98 996.58 996.30 996.11 995.99 995.90 995.83 995.75 995.67 995.57 995.48 995.40 995.37 995.41 995.53 995.74 996.04 996.44 996.90 997.41
1015.26 1014.89 1014.43 1013.90 1013.31 1012.68 1012.01 1011.32 1010.61 1009.88 1009.12 1008.33 1007.48 1006.58 1005.62 1004.60 1003.54 1002.46 1001.39 1000.35 999.38 998.50 997.74 997.11 996.62 996.26 996.01 995.86 995.76 995.70 995.65 995.59 995.53 995.45 995.39 995.34 995.34 995.40 995.54 995.77 996.08 996.48 996.94 997.44
1015.08 1014.72 1014.28 1013.78 1013.22 1012.62 1011.98 1011.32 1010.62 1009.90 1009.13 1008.32 1007.44 1006.50 1005.50 1004.44 1003.34 1002.23 1001.13 1000.08 999.10 998.23 997.48 996.87 996.40 996.05 995.81 995.66 995.57 995.52 995.47 995.42 995.37 995.31 995.26 995.24 995.25 995.34 995.49 995.73 996.05 996.44 996.90 997.39
1014.89 1014.55 1014.13 1013.65 1013.13 1012.56 1011.96 1011.34 1010.67 1009.97 1009.22 1008.41 1007.53 1006.57 1005.55 1004.47 1003.35 1002.22 1001.10 1000.04 999.05 998.17 997.42 996.80 996.32 995.96 995.71 995.54 995.43 995.36 995.30 995.24 995.18 995.13 995.09 995.07 995.11 995.20 995.36 995.61 995.93 996.31 996.75 997.22
1014.69 1014.35 1013.96 1013.50 1013.01 1012.48 1011.93 1011.35 1010.73 1010.07 1009.36 1008.57 1007.71 1006.78 1005.76 1004.69 1003.57 1002.44 1001.32 1000.24 999.24 998.35 997.58 996.93 996.41 996.02 995.73 995.52 995.37 995.26 995.16 995.08 995.01 994.94 994.90 994.89 994.93 995.03 995.20 995.44 995.75 996.12 996.54 996.99
1014.47 1014.13 1013.75 1013.31 1012.85 1012.36 1011.86 1011.33 1010.77 1010.17 1009.52 1008.79 1007.98 1007.09 1006.12 1005.08 1003.99 1002.87 1001.76 1000.69 999.68 998.77 997.97 997.28 996.72 996.27 995.92 995.65 995.44 995.27 995.13 995.02 994.92 994.84 994.78 994.77 994.81 994.91 995.07 995.31 995.61 995.96 996.36 996.79
1014.23 1013.90 1013.51 1013.09 1012.66 1012.21 1011.76 1011.29 1010.80 1010.27 1009.69 1009.04 1008.31 1007.49 1006.59 1005.61 1004.57 1003.50 1002.42 1001.36 1000.36 999.43 998.60 997.87 997.25 996.74 996.32 995.98 995.70 995.47 995.28 995.12 994.99 994.89 994.83 994.81 994.84 994.94 995.11 995.34 995.63 995.96 996.34 996.74
Thickness
5740 5742 5737 5726 5719 5716 5710 5705 5695 5693 5681 5659 5649 5643 5638 5634 5630 5627 5624 5621 5616 5613 5611 5609 5608 5606 5605 5604 5604 5603 5602 5603 5604 5607 5610 5613 5617 5622 5628 5633 5638 5642 5645 5647
5732 5736 5728 5713 5703 5700 5691 5685 5681 5672 5655 5646 5638 5631 5624 5618 5613 5610 5609 5606 5603 5602 5600 5599 5597 5595 5593 5591 5589 5587 5586 5586 5588 5589 5591 5595 5599 5604 5610 5616 5622 5627 5631 5635
5726 5727 5717 5698 5681 5679 5674 5666 5662 5652 5641 5634 5628 5621 5614 5609 5605 5602 5600 5598 5595 5592 5589 5587 5584 5582 5579 5577 5575 5573 5571 5571 5572 5572 5575 5577 5581 5585 5590 5597 5603 5609 5616 5621
5721 5714 5693 5674 5676 5668 5660 5654 5647 5637 5631 5625 5618 5614 5611 5607 5601 5595 5590 5585 5580 5575 5572 5568 5565 5561 5558 5557 5554 5553 5552 5553 5555 5556 5557 5559 5562 5566 5571 5578 5584 5591 5598 5606
5709 5701 5686 5665 5662 5654 5645 5644 5638 5627 5623 5619 5615 5609 5609 5604 5591 5580 5573 5567 5561 5556 5551 5546 5542 5538 5536 5534 5532 5531 5532 5532 5534 5535 5537 5539 5543 5547 5553 5558 5565 5573 5581 5589
5698 5682 5676 5649 5651 5647 5635 5632 5626 5619 5612 5606 5599 5592 5592 5583 5571 5563 5555 5548 5542 5537 5533 5528 5525 5521 5519 5518 5516 5516 5516 5517 5517 5518 5519 5521 5525 5530 5536 5541 5547 5556 5565 5573
5683 5675 5664 5649 5647 5643 5625 5621 5616 5607 5599 5591 5583 5575 5571 5564 5555 5546 5539 5533 5528 5525 5522 5519 5517 5513 5511 5511 5510 5509 5509 5509 5509 5509 5510 5512 5515 5518 5522 5528 5534 5540 5548 5559
5673 5661 5647 5643 5638 5624 5615 5612 5604 5596 5588 5579 5571 5564 5556 5548 5540 5533 5528 5525 5521 5519 5518 5517 5515 5512 5511 5510 5509 5507 5507 5507 5507 5507 5508 5511 5512 5514 5516 5519 5524 5530 5536 5544
5661 5653 5642 5635 5625 5619 5611 5601 5593 5584 5576 5566 5558 5550 5543 5536 5531 5527 5524 5522 5520 5518 5518 5517 5514 5512 5510 5510 5508 5507 5506 5506 5506 5506 5507 5508 5509 5511 5514 5516 5520 5526 5529 5535
5650 5644 5636 5630 5622 5613 5602 5591 5582 5572 5563 5554 5545 5539 5533 5528 5525 5523 5522 5520 5519 5518 5517 5516 5513 5511 5509 5508 5506 5505 5505 5505 5505 5505 5506 5508 5508 5511 5513 5517 5519 5522 5524 5528
5641 5636 5628 5625 5613 5602 5592 5583 5573 5564 5553 5543 5536 5531 5527 5524 5523 5521 5520 5518 5516 5514 5513 5512 5510 5508 5506 5505 5502 5501 5502 5502 5502 5504 5505 5506 5507 5508 5511 5513 5515 5515 5518 5520
5632 5624 5614 5610 5604 5594 5584 5574 5565 5554 5546 5537 5529 5525 5523 5521 5520 5518 5516 5514 5512 5510 5507 5506 5504 5502 5500 5498 5496 5495 5496 5497 5498 5500 5501 5502 5504 5506 5507 5506 5506 5505 5506 5509
5625 5619 5611 5604 5596 5587 5576 5566 5556 5546 5537 5532 5528 5523 5520 5518 5516 5514 5511 5508 5506 5503 5500 5497 5495 5494 5493 5492 5490 5489 5489 5489 5489 5491 5493 5495 5499 5501 5503 5503 5500 5500 5501 5503
5619 5611 5603 5597 5589 5580 5570 5560 5550 5541 5533 5527 5523 5520 5517 5514 5512 5508 5504 5501 5498 5494 5491 5489 5487 5487 5485 5484 5483 5483 5483 5483 5484 5485 5487 5491 5494 5497 5500 5503 5504 5506 5503 5503
5615 5606 5597 5591 5584 5575 5564 5554 5545 5538 5531 5525 5520 5515 5511 5507 5504 5500 5497 5493 5489 5486 5483 5481 5480 5480 5478 5477 5477 5477 5478 5479 5480 5481 5484 5487 5491 5494 5497 5501 5504 5507 5509 5509
5609 5602 5594 5585 5576 5567 5557 5547 5538 5532 5527 5522 5517 5512 5506 5501 5498 5494 5490 5485 5481 5478 5476 5475 5474 5474 5473 5472 5472 5473 5474 5476 5476 5478 5481 5484 5488 5493 5496 5500 5504 5509 5512 5515
5601 5594 5586 5577 5569 5560 5549 5539 5531 5526 5521 5517 5513 5508 5503 5499 5494 5490 5486 5481 5477 5474 5473 5472 5472 5471 5470 5469 5469 5470 5471 5474 5474 5476 5480 5484 5489 5493 5497 5501 5506 5512 5517 5521
5596 5587 5579 5569 5561 5553 5545 5537 5528 5522 5518 5514 5510 5505 5500 5495 5490 5486 5482 5479 5477 5476 5474 5472 5470 5468 5467 5467 5466 5468 5470 5473 5476 5479 5483 5487 5491 5495 5500 5506 5512 5518 5522 5526
5592 5584 5575 5565 5555 5547 5539 5531 5525 5519 5515 5511 5506 5501 5496 5491 5487 5484 5481 5479 5478 5477 5475 5472 5466 5465 5465 5466 5465 5467 5470 5474 5478 5482 5486 5488 5494 5500 5507 5514 5520 5526 5531 5535
5588 5579 5571 5562 5553 5543 5535 5528 5521 5517 5513 5508 5504 5500 5496 5492 5488 5485 5483 5481 5479 5476 5474 5470 5468 5467 5465 5466 5465 5468 5472 5476 5481 5487 5491 5497 5503 5510 5516 5523 5529 5536 5540 5544
5583 5575 5567 5558 5549 5540 5532 5524 5519 5515 5512 5507 5503 5499 5496 5493 5490 5487 5486 5486 5485 5480 5476 5472 5472 5470 5468 5467 5468 5474 5477 5482 5487 5493 5499 5505 5512 5519 5526 5532 5538 5543 5548 5553
5578 5570 5562 5554 5546 5538 5530 5523 5518 5514 5510 5507 5503 5501 5497 5495 5494 5492 5489 5487 5486 5481 5481 5482 5481 5475 5473 5473 5479 5483 5486 5492 5497 5502 5508 5515 5522 5529 5536 5541 5547 5552 5557 5562
5573 5566 5558 5551 5544 5535 5529 5523 5517 5512 5509 5507 5505 5502 5498 5495 5494 5493 5495 5494 5491 5488 5489 5490 5486 5482 5480 5487 5491 5494 5498 5503 5508 5513 5519 5526 5533 5540 5546 5551 5556 5561 5566 5570
5569 5562 5555 5549 5541 5535 5529 5523 5515 5511 5509 5508 5506 5504 5501 5499 5499 5497 5495 5496 5498 5497 5501 5499 5495 5495 5496 5504 5506 5509 5512 5516 5521 5526 5531 5538 5544 5550 5556 5561 5566 5571 5574 5578
5566 5559 5554 5547 5541 5535 5527 5521 5516 5513 5512 5511 5509 5507 5504 5500 5498 5500 5502 5505 5506 5507 5512 5512 5510 5510 5514 5519 5521 5523 5527 5530 5534 5538 5543 5550 5556 5561 5566 5570 5575 5579 5582 5585
5563 5558 5552 5544 5538 5531 5524 5518 5514 5512 5511 5511 5509 5509 5507 5505 5505 5506 5508 5511 5514 5515 5518 5520 5521 5523 5526 5529 5532 5535 5538 5542 5547 5551 5556 5561 5566 5570 5575 5579 5582 5586 5589 5591
5563 5558 5552 5546 5538 5529 5521 5515 5512 5511 5509 5507 5506 5508 5507 5507 5508 5510 5513 5516 5520 5523 5525 5527 5528 5531 5534 5537 5541 5545 5549 5553 5557 5561 5566 5570 5574 5578 5582 5586 5589 5591 5593 5595